Voltar ao catálogo

STARLINK-32150

AtivoComunicaçõesVLEO
NORAD 60294·PAYLOAD·🇺🇸 United States

Lançado Jul 28, 2024 de Cape Canaveral Space Force Station

Loading…

Próximas Passagens (próximas 24 horas)

TLE

AtualizadoSource: CelesTrak SupGP

Época: Sep 14, 2026, 21:19 UTC

1 60294C 24132S   26257.88868056  .00052257  00000+0  16805-2 0  2573
2 60294  53.1581 252.6130 0001395  92.6812 202.8705 15.31674224    11

Acompanhe STARLINK-32150 em tempo real com AllMySat

Download on the App Store